Time,TemperatureF,DewpointF,PressureIn,WindDirection,WindDirectionDegrees,WindSpeedMPH,WindSpeedGustMPH,Humidity,HourlyPrecipIn,Conditions,Clouds,dailyrainin,SoftwareType,DateUTC
2013-07-06 00:01:00,75.5,62.5,29.90,South,181,2.0,5.0,64,0.00,CLR,SKC,0.00,WeatherDisplay:10.37,2013-07-06 05:01:00,
2013-07-06 00:06:00,75.4,62.8,29.89,SSE,153,3.0,7.0,65,0.00,CLR,SKC,0.00,WeatherDisplay:10.37,2013-07-06 05:06:00,
2013-07-06 00:11:00,75.3,62.7,29.89,SSE,149,1.0,7.0,65,0.00,CLR,SKC,0.00,WeatherDisplay:10.37,2013-07-06 05:11:00,
2013-07-06 00:16:00,75.2,62.6,29.89,SSE,147,2.0,15.0,65,0.00,CLR,SKC,0.00,WeatherDisplay:10.37,2013-07-06 05:16:00,
2013-07-06 00:21:00,75.2,62.6,29.89,SE,145,1.0,15.0,65,0.00,CLR,SKC,0.00,WeatherDisplay:10.37,2013-07-06 05:21:00,
2013-07-06 00:26:00,75.1,62.5,29.89,SSE,156,1.0,5.0,65,0.00,CLR,SKC,0.00,WeatherDisplay:10.37,2013-07-06 05:26:00,
2013-07-06 00:31:00,74.9,62.8,29.89,SSE,152,1.0,7.0,66,0.00,CLR,SKC,0.00,WeatherDisplay:10.37,2013-07-06 05:31:00,
2013-07-06 00:36:00,74.8,62.7,29.89,SSE,154,1.0,12.0,66,0.00,CLR,SKC,0.00,WeatherDisplay:10.37,2013-07-06 05:36:00,
2013-07-06 00:41:00,74.7,62.6,29.89,SSE,168,1.0,7.0,66,0.00,CLR,SKC,0.00,WeatherDisplay:10.37,2013-07-06 05:41:00,
2013-07-06 00:46:00,74.5,62.8,29.89,SE,146,3.0,8.0,67,0.00,CLR,SKC,0.00,WeatherDisplay:10.37,2013-07-06 05:46:00,
2013-07-06 00:51:00,74.4,62.8,29.88,SSE,158,0.0,5.0,67,0.00,CLR,SKC,0.00,WeatherDisplay:10.37,2013-07-06 05:51:00,
2013-07-06 00:56:00,74.3,62.6,29.88,SSW,193,2.0,8.0,67,0.00,CLR,SKC,0.00,WeatherDisplay:10.37,2013-07-06 05:56:00,
2013-07-06 01:01:00,74.2,63.0,29.88,South,177,1.0,5.0,68,0.00,CLR,SKC,0.00,WeatherDisplay:10.37,2013-07-06 06:01:00,
2013-07-06 01:06:00,74.1,62.9,29.88,SE,146,1.0,8.0,68,0.00,CLR,SKC,0.00,WeatherDisplay:10.37,2013-07-06 06:06:00,
2013-07-06 01:11:00,74.0,62.8,29.88,South,170,3.0,7.0,68,0.00,CLR,SKC,0.00,WeatherDisplay:10.37,2013-07-06 06:11:00,
2013-07-06 01:16:00,74.0,62.8,29.88,South,181,3.0,8.0,68,0.00,CLR,SKC,0.00,WeatherDisplay:10.37,2013-07-06 06:16:00,
2013-07-06 01:21:00,73.9,62.7,29.88,South,176,1.0,7.0,68,0.00,CLR,SKC,0.00,WeatherDisplay:10.37,2013-07-06 06:21:00,
2013-07-06 01:26:00,73.7,62.9,29.88,South,187,1.0,3.0,69,0.00,CLR,SKC,0.00,WeatherDisplay:10.37,2013-07-06 06:26:00,
2013-07-06 01:31:00,73.7,62.9,29.88,SSW,211,5.0,12.0,69,0.00,CLR,SKC,0.00,WeatherDisplay:10.37,2013-07-06 06:31:00,
2013-07-06 01:36:00,73.8,62.6,29.88,SW,224,0.0,7.0,68,0.00,CLR,SKC,0.00,WeatherDisplay:10.37,2013-07-06 06:36:00,
2013-07-06 01:41:00,73.7,62.9,29.88,SSE,156,5.0,8.0,69,0.00,CLR,SKC,0.00,WeatherDisplay:10.37,2013-07-06 06:41:00,
2013-07-06 01:46:00,73.6,62.8,29.88,SSE,160,3.0,15.0,69,0.00,CLR,SKC,0.00,WeatherDisplay:10.37,2013-07-06 06:46:00,
2013-07-06 01:51:00,73.5,62.7,29.88,SSE,160,1.0,15.0,69,0.00,CLR,SKC,0.00,WeatherDisplay:10.37,2013-07-06 06:51:00,
2013-07-06 01:56:00,73.4,62.6,29.88,SSE,151,1.0,6.0,69,0.00,CLR,SKC,0.00,WeatherDisplay:10.37,2013-07-06 06:56:00,
2013-07-06 02:01:00,73.3,62.5,29.88,SE,140,5.0,8.0,69,0.00,CLR,SKC,0.00,WeatherDisplay:10.37,2013-07-06 07:01:00,
2013-07-06 02:06:00,73.3,62.5,29.88,SE,139,5.0,12.0,69,0.00,CLR,SKC,0.00,WeatherDisplay:10.37,2013-07-06 07:06:00,
2013-07-06 02:11:00,73.3,62.5,29.88,SE,140,2.0,10.0,69,0.00,CLR,SKC,0.00,WeatherDisplay:10.37,2013-07-06 07:11:00,
2013-07-06 02:16:00,73.2,62.8,29.87,South,188,2.0,7.0,70,0.00,CLR,SKC,0.00,WeatherDisplay:10.37,2013-07-06 07:16:00,
2013-07-06 02:22:00,73.1,62.7,29.87,SSW,202,2.0,10.0,70,0.00,CLR,SKC,0.00,WeatherDisplay:10.37,2013-07-06 07:22:00,
2013-07-06 02:27:00,73.0,62.6,29.87,SSE,160,2.0,8.0,70,0.00,CLR,SKC,0.00,WeatherDisplay:10.37,2013-07-06 07:27:00,
2013-07-06 02:32:00,72.8,62.8,29.87,SE,141,2.0,7.0,71,0.00,CLR,SKC,0.00,WeatherDisplay:10.37,2013-07-06 07:32:00,
2013-07-06 02:37:00,72.6,62.7,29.88,SE,144,3.0,8.0,71,0.00,CLR,SKC,0.00,WeatherDisplay:10.37,2013-07-06 07:37:00,
2013-07-06 02:42:00,72.5,62.6,29.88,SSE,158,3.0,8.0,71,0.00,CLR,SKC,0.00,WeatherDisplay:10.37,2013-07-06 07:42:00,
2013-07-06 02:47:00,72.3,62.4,29.88,SSE,156,1.0,10.0,71,0.00,CLR,SKC,0.00,WeatherDisplay:10.37,2013-07-06 07:47:00,
2013-07-06 02:52:00,72.2,62.7,29.88,South,169,2.0,10.0,72,0.00,CLR,SKC,0.00,WeatherDisplay:10.37,2013-07-06 07:52:00,
2013-07-06 02:57:00,72.1,62.6,29.88,South,179,3.0,7.0,72,0.00,CLR,SKC,0.00,WeatherDisplay:10.37,2013-07-06 07:57:00,
2013-07-06 03:02:00,71.9,62.4,29.88,SSE,168,2.0,10.0,72,0.00,CLR,SKC,0.00,WeatherDisplay:10.37,2013-07-06 08:02:00,
2013-07-06 03:07:00,71.8,62.7,29.88,SSE,166,0.0,7.0,73,0.00,CLR,SKC,0.00,WeatherDisplay:10.37,2013-07-06 08:07:00,
2013-07-06 03:12:00,71.6,62.5,29.88,South,177,0.0,6.0,73,0.00,CLR,SKC,0.00,WeatherDisplay:10.37,2013-07-06 08:12:00,
2013-07-06 03:22:00,71.3,62.6,29.88,SSE,167,2.0,7.0,74,0.00,CLR,SKC,0.00,WeatherDisplay:10.37,2013-07-06 08:22:00,
2013-07-06 03:27:00,71.1,62.8,29.88,South,182,1.0,10.0,75,0.00,CLR,SKC,0.00,WeatherDisplay:10.37,2013-07-06 08:27:00,
2013-07-06 03:32:00,71.0,62.7,29.88,South,169,1.0,9.0,75,0.00,CLR,SKC,0.00,WeatherDisplay:10.37,2013-07-06 08:32:00,
2013-07-06 03:37:00,70.9,62.6,29.88,South,184,1.0,7.0,75,0.00,CLR,SKC,0.00,WeatherDisplay:10.37,2013-07-06 08:37:00,
2013-07-06 03:42:00,70.7,62.8,29.88,SSW,200,1.0,7.0,76,0.00,CLR,SKC,0.00,WeatherDisplay:10.37,2013-07-06 08:42:00,
2013-07-06 03:47:00,70.7,62.7,29.88,South,191,1.0,7.0,76,0.00,CLR,SKC,0.00,WeatherDisplay:10.37,2013-07-06 08:47:00,
2013-07-06 03:52:00,70.6,62.7,29.88,SSE,165,2.0,7.0,76,0.00,CLR,SKC,0.00,WeatherDisplay:10.37,2013-07-06 08:52:00,
2013-07-06 03:57:00,70.5,62.5,29.88,SSE,152,1.0,7.0,76,0.00,CLR,SKC,0.00,WeatherDisplay:10.37,2013-07-06 08:57:00,
2013-07-06 04:02:00,70.3,62.4,29.88,SE,134,1.0,5.0,76,0.00,CLR,SKC,0.00,WeatherDisplay:10.37,2013-07-06 09:02:00,
2013-07-06 04:07:00,70.3,62.7,29.88,SE,140,2.0,10.0,77,0.00,CLR,SKC,0.00,WeatherDisplay:10.37,2013-07-06 09:07:00,
2013-07-06 04:12:00,70.2,62.6,29.88,SE,146,2.0,5.0,77,0.00,CLR,SKC,0.00,WeatherDisplay:10.37,2013-07-06 09:12:00,
2013-07-06 04:17:00,70.0,62.5,29.88,SSE,161,2.0,5.0,77,0.00,CLR,SKC,0.00,WeatherDisplay:10.37,2013-07-06 09:17:00,
2013-07-06 04:22:00,69.9,62.4,29.88,SSE,168,5.0,8.0,77,0.00,CLR,SKC,0.00,WeatherDisplay:10.37,2013-07-06 09:22:00,
2013-07-06 04:27:00,69.9,62.4,29.88,SSE,165,0.0,3.0,77,0.00,CLR,SKC,0.00,WeatherDisplay:10.37,2013-07-06 09:27:00,
2013-07-06 04:32:00,69.8,62.3,29.88,SE,145,0.0,8.0,77,0.00,CLR,SKC,0.00,WeatherDisplay:10.37,2013-07-06 09:32:00,
2013-07-06 04:37:00,69.8,62.2,29.88,SSE,160,0.0,8.0,77,0.00,CLR,SKC,0.00,WeatherDisplay:10.37,2013-07-06 09:37:00,
2013-07-06 04:42:00,69.7,62.5,29.88,SSE,152,1.0,7.0,78,0.00,CLR,SKC,0.00,WeatherDisplay:10.37,2013-07-06 09:42:00,
2013-07-06 04:47:00,69.6,62.4,29.88,SE,128,0.0,3.0,78,0.00,CLR,SKC,0.00,WeatherDisplay:10.37,2013-07-06 09:47:00,
2013-07-06 04:52:00,69.5,62.4,29.89,SE,126,0.0,3.0,78,0.00,CLR,SKC,0.00,WeatherDisplay:10.37,2013-07-06 09:52:00,
2013-07-06 04:57:00,69.4,62.3,29.89,SE,140,0.0,3.0,78,0.00,CLR,SKC,0.00,WeatherDisplay:10.37,2013-07-06 09:57:00,
2013-07-06 05:02:00,69.3,62.2,29.89,SSE,148,0.0,3.0,78,0.00,CLR,SKC,0.00,WeatherDisplay:10.37,2013-07-06 10:02:00,
2013-07-06 05:07:00,69.2,62.1,29.89,SSE,149,0.0,2.0,78,0.00,CLR,SKC,0.00,WeatherDisplay:10.37,2013-07-06 10:07:00,
2013-07-06 05:12:00,69.1,62.3,29.89,SSE,149,1.0,5.0,79,0.00,CLR,SKC,0.00,WeatherDisplay:10.37,2013-07-06 10:12:00,
2013-07-06 05:17:00,69.0,62.2,29.89,South,176,1.0,5.0,79,0.00,CLR,SKC,0.00,WeatherDisplay:10.37,2013-07-06 10:17:00,
2013-07-06 05:22:00,69.0,62.2,29.89,South,182,1.0,5.0,79,0.00,CLR,SKC,0.00,WeatherDisplay:10.37,2013-07-06 10:22:00,
2013-07-06 05:27:00,69.0,62.2,29.89,South,180,1.0,3.0,79,0.00,CLR,SKC,0.00,WeatherDisplay:10.37,2013-07-06 10:27:00,
2013-07-06 05:32:00,69.0,62.2,29.89,SSE,149,2.0,7.0,79,0.00,CLR,SKC,0.00,WeatherDisplay:10.37,2013-07-06 10:32:00,
2013-07-06 05:37:00,69.0,61.9,29.89,SSE,149,2.0,7.0,78,0.00,CLR,SKC,0.00,WeatherDisplay:10.37,2013-07-06 10:37:00,
2013-07-06 05:42:00,69.1,62.0,29.89,SSE,150,0.0,5.0,78,0.00,CLR,SKC,0.00,WeatherDisplay:10.37,2013-07-06 10:42:00,
2013-07-06 05:47:00,69.0,61.9,29.89,SE,146,0.0,2.0,78,0.00,CLR,SKC,0.00,WeatherDisplay:10.37,2013-07-06 10:47:00,
2013-07-06 05:52:00,68.9,61.8,29.90,South,181,0.0,5.0,78,0.00,CLR,SKC,0.00,WeatherDisplay:10.37,2013-07-06 10:52:00,
2013-07-06 05:57:00,68.9,61.7,29.90,South,179,1.0,5.0,78,0.00,CLR,SKC,0.00,WeatherDisplay:10.37,2013-07-06 10:57:00,
2013-07-06 06:02:00,68.8,61.7,29.90,South,183,0.0,5.0,78,0.00,CLR,SKC,0.00,WeatherDisplay:10.37,2013-07-06 11:02:00,
2013-07-06 06:07:00,68.8,62.0,29.90,South,178,0.0,2.0,79,0.00,CLR,SKC,0.00,WeatherDisplay:10.37,2013-07-06 11:07:00,
2013-07-06 06:12:00,68.8,62.0,29.90,SSE,155,1.0,3.0,79,0.00,CLR,SKC,0.00,WeatherDisplay:10.37,2013-07-06 11:12:00,
2013-07-06 06:17:00,68.8,62.0,29.90,SSE,151,0.0,2.0,79,0.00,CLR,SKC,0.00,WeatherDisplay:10.37,2013-07-06 11:17:00,
2013-07-06 06:22:00,68.8,62.0,29.90,SSE,168,1.0,2.0,79,0.00,CLR,SKC,0.00,WeatherDisplay:10.37,2013-07-06 11:22:00,
2013-07-06 06:27:00,68.8,62.0,29.90,SSE,159,0.0,2.0,79,0.00,CLR,SKC,0.00,WeatherDisplay:10.37,2013-07-06 11:27:00,
2013-07-06 06:32:00,68.8,62.0,29.91,SSE,149,1.0,5.0,79,0.00,CLR,SKC,0.00,WeatherDisplay:10.37,2013-07-06 11:32:00,
2013-07-06 06:42:00,69.0,61.9,29.91,SE,141,0.0,3.0,78,0.00,CLR,SKC,0.00,WeatherDisplay:10.37,2013-07-06 11:42:00,
2013-07-06 06:52:00,69.3,62.1,29.91,SSE,152,0.0,2.0,78,0.00,CLR,SKC,0.00,WeatherDisplay:10.37,2013-07-06 11:52:00,
2013-07-06 06:57:00,69.4,62.3,29.91,SE,136,1.0,7.0,78,0.00,CLR,SKC,0.00,WeatherDisplay:10.37,2013-07-06 11:57:00,
2013-07-06 07:02:00,69.6,62.5,29.91,SE,145,1.0,3.0,78,0.00,CLR,SKC,0.00,WeatherDisplay:10.37,2013-07-06 12:02:00,
2013-07-06 07:07:00,69.8,62.6,29.91,SSE,154,0.0,3.0,78,0.00,CLR,SKC,0.00,WeatherDisplay:10.37,2013-07-06 12:07:00,
2013-07-06 07:12:00,70.0,62.5,29.91,SSE,147,0.0,3.0,77,0.00,CLR,SKC,0.00,WeatherDisplay:10.37,2013-07-06 12:12:00,
2013-07-06 07:17:00,70.2,62.7,29.91,SE,140,0.0,8.0,77,0.00,CLR,SKC,0.00,WeatherDisplay:10.37,2013-07-06 12:17:00,
2013-07-06 07:22:00,70.5,62.5,29.91,SE,142,1.0,8.0,76,0.00,CLR,SKC,0.00,WeatherDisplay:10.37,2013-07-06 12:22:00,
2013-07-06 07:27:00,70.7,62.8,29.92,SE,140,1.0,5.0,76,0.00,CLR,SKC,0.00,WeatherDisplay:10.37,2013-07-06 12:27:00,
2013-07-06 07:32:00,70.9,63.0,29.91,SE,143,1.0,3.0,76,0.00,CLR,SKC,0.00,WeatherDisplay:10.37,2013-07-06 12:32:00,
2013-07-06 07:37:00,71.2,62.8,29.91,South,171,1.0,3.0,75,0.00,CLR,SKC,0.00,WeatherDisplay:10.37,2013-07-06 12:37:00,
2013-07-06 07:42:00,71.5,63.1,29.91,SSE,155,1.0,6.0,75,0.00,CLR,SKC,0.00,WeatherDisplay:10.37,2013-07-06 12:42:00,
2013-07-06 07:47:00,71.9,63.5,29.91,SE,145,0.0,2.0,75,0.00,CLR,SKC,0.00,WeatherDisplay:10.37,2013-07-06 12:47:00,
2013-07-06 07:52:00,72.3,63.2,29.91,South,187,5.0,8.0,73,0.00,CLR,SKC,0.00,WeatherDisplay:10.37,2013-07-06 12:52:00,
2013-07-06 07:57:00,72.9,63.7,29.91,South,174,1.0,5.0,73,0.00,CLR,SKC,0.00,WeatherDisplay:10.37,2013-07-06 12:57:00,
2013-07-06 08:02:00,73.2,63.6,29.92,SSE,162,2.0,8.0,72,0.00,CLR,SKC,0.00,WeatherDisplay:10.37,2013-07-06 13:02:00,
2013-07-06 08:07:00,73.5,64.0,29.91,SSE,152,2.0,7.0,72,0.00,CLR,SKC,0.00,WeatherDisplay:10.37,2013-07-06 13:07:00,
2013-07-06 08:12:00,74.0,64.4,29.92,SSE,150,2.0,7.0,72,0.00,CLR,SKC,0.00,WeatherDisplay:10.37,2013-07-06 13:12:00,
2013-07-06 08:17:00,74.6,64.5,29.92,SSE,168,1.0,7.0,71,0.00,CLR,SKC,0.00,WeatherDisplay:10.37,2013-07-06 13:17:00,
2013-07-06 08:22:00,75.4,65.0,29.91,SSW,193,3.0,11.0,70,0.00,CLR,SKC,0.00,WeatherDisplay:10.37,2013-07-06 13:22:00,
2013-07-06 08:27:00,75.8,64.9,29.91,SSW,205,6.0,10.0,69,0.00,CLR,SKC,0.00,WeatherDisplay:10.37,2013-07-06 13:27:00,
2013-07-06 08:32:00,76.1,64.8,29.91,South,190,6.0,10.0,68,0.00,CLR,SKC,0.00,WeatherDisplay:10.37,2013-07-06 13:32:00,
2013-07-06 08:42:00,76.1,64.4,29.91,SSW,200,3.0,7.0,67,0.00,CLR,SKC,0.00,WeatherDisplay:10.37,2013-07-06 13:42:00,
2013-07-06 08:47:00,75.9,64.2,29.92,SSW,193,5.0,8.0,67,0.00,CLR,SKC,0.00,WeatherDisplay:10.37,2013-07-06 13:47:00,
2013-07-06 08:52:00,75.8,64.1,29.92,South,172,1.0,5.0,67,0.00,CLR,SKC,0.00,WeatherDisplay:10.37,2013-07-06 13:52:00,
2013-07-06 08:57:00,75.6,63.9,29.93,South,177,1.0,6.0,67,0.00,CLR,SKC,0.00,WeatherDisplay:10.37,2013-07-06 13:57:00,
2013-07-06 09:02:00,75.5,63.8,29.94,South,173,1.0,5.0,67,0.00,CLR,SKC,0.00,WeatherDisplay:10.37,2013-07-06 14:02:00,
2013-07-06 09:07:00,75.3,64.0,29.95,ENE,64,0.0,5.0,68,0.00,CLR,SKC,0.00,WeatherDisplay:10.37,2013-07-06 14:07:00,
2013-07-06 09:12:00,75.1,63.4,29.95,North,6,2.0,5.0,67,0.00,CLR,SKC,0.00,WeatherDisplay:10.37,2013-07-06 14:12:00,
2013-07-06 09:22:00,74.7,65.1,29.95,NE,40,1.0,2.0,72,0.00,CLR,SKC,0.01,WeatherDisplay:10.37,2013-07-06 14:22:00,
2013-07-06 09:32:00,72.6,65.7,29.94,SW,218,1.0,5.0,79,0.03,RA,SKC,0.05,WeatherDisplay:10.37,2013-07-06 14:32:00,
2013-07-06 09:42:00,71.2,66.1,29.93,SSE,166,0.0,3.0,84,0.00,RA,SKC,0.08,WeatherDisplay:10.37,2013-07-06 14:42:00,
2013-07-06 09:47:00,70.9,65.8,29.93,South,182,1.0,8.0,84,0.01,RA,SKC,0.08,WeatherDisplay:10.37,2013-07-06 14:47:00,
2013-07-06 09:52:00,70.9,65.8,29.92,SSW,197,1.0,8.0,84,0.00,RA,SKC,0.08,WeatherDisplay:10.37,2013-07-06 14:52:00,
2013-07-06 09:57:00,70.9,65.8,29.92,SW,214,2.0,10.0,84,0.00,CLR,SKC,0.08,WeatherDisplay:10.37,2013-07-06 14:57:00,
2013-07-06 10:02:00,71.0,65.9,29.91,SSW,212,3.0,8.0,84,0.00,CLR,SKC,0.08,WeatherDisplay:10.37,2013-07-06 15:02:00,
2013-07-06 10:07:00,71.0,65.6,29.90,SSW,192,3.0,10.0,83,0.00,CLR,SKC,0.08,WeatherDisplay:10.37,2013-07-06 15:07:00,
2013-07-06 10:12:00,71.3,65.5,29.90,SSW,210,6.0,16.0,82,0.00,CLR,SKC,0.08,WeatherDisplay:10.37,2013-07-06 15:12:00,
2013-07-06 10:17:00,71.7,65.5,29.90,SW,225,7.0,10.0,81,0.00,CLR,SKC,0.08,WeatherDisplay:10.37,2013-07-06 15:17:00,
2013-07-06 10:22:00,72.1,65.6,29.90,SSW,205,6.0,16.0,80,0.00,CLR,SKC,0.08,WeatherDisplay:10.37,2013-07-06 15:22:00,
2013-07-06 10:32:00,72.7,65.4,29.89,SW,234,3.0,14.0,78,0.00,CLR,SKC,0.08,WeatherDisplay:10.37,2013-07-06 15:32:00,
2013-07-06 10:42:00,73.3,65.7,29.90,SW,214,5.0,18.0,77,0.00,CLR,SKC,0.08,WeatherDisplay:10.37,2013-07-06 15:42:00,
2013-07-06 10:52:00,74.1,65.7,29.89,SW,215,7.0,13.0,75,0.00,CLR,SKC,0.08,WeatherDisplay:10.37,2013-07-06 15:52:00,
2013-07-06 11:02:00,75.4,65.7,29.89,SSW,200,6.0,15.0,72,0.00,CLR,SKC,0.08,WeatherDisplay:10.37,2013-07-06 16:02:00,
2013-07-06 11:07:00,76.0,66.3,29.89,SSW,211,6.0,12.0,72,0.00,CLR,SKC,0.08,WeatherDisplay:10.37,2013-07-06 16:07:00,
2013-07-06 11:22:00,77.6,66.6,29.89,SSW,210,5.0,14.0,69,0.00,CLR,SKC,0.08,WeatherDisplay:10.37,2013-07-06 16:22:00,
2013-07-06 11:32:00,79.9,66.6,29.89,South,189,13.0,21.0,64,0.00,CLR,SKC,0.08,WeatherDisplay:10.37,2013-07-06 16:32:00,
2013-07-06 11:42:00,80.4,66.7,29.89,SW,216,6.0,19.0,63,0.00,CLR,SKC,0.08,WeatherDisplay:10.37,2013-07-06 16:42:00,
2013-07-06 11:52:00,80.0,65.8,29.89,South,182,9.0,16.0,62,0.00,CLR,SKC,0.08,WeatherDisplay:10.37,2013-07-06 16:52:00,
2013-07-06 12:02:00,81.6,67.3,29.88,SSW,199,1.0,12.0,62,0.00,CLR,SKC,0.08,WeatherDisplay:10.37,2013-07-06 17:02:00,
2013-07-06 12:07:00,82.4,67.1,29.88,South,186,9.0,15.0,60,0.00,CLR,SKC,0.08,WeatherDisplay:10.37,2013-07-06 17:07:00,
2013-07-06 12:12:00,82.8,67.0,29.88,South,183,8.0,14.0,59,0.00,CLR,SKC,0.08,WeatherDisplay:10.37,2013-07-06 17:12:00,
2013-07-06 12:22:00,83.5,67.2,29.88,SSW,206,10.0,18.0,58,0.00,CLR,SKC,0.08,WeatherDisplay:10.37,2013-07-06 17:22:00,
2013-07-06 12:27:00,83.9,67.5,29.87,South,183,8.0,18.0,58,0.00,CLR,SKC,0.08,WeatherDisplay:10.37,2013-07-06 17:27:00,
2013-07-06 12:47:00,86.2,67.1,29.86,SSW,193,10.0,21.0,53,0.00,CLR,SKC,0.08,WeatherDisplay:10.37,2013-07-06 17:47:00,
2013-07-06 12:52:00,86.2,67.1,29.86,SW,220,12.0,24.0,53,0.00,CLR,SKC,0.08,WeatherDisplay:10.37,2013-07-06 17:52:00,
2013-07-06 13:02:00,87.3,68.1,29.86,South,184,7.0,18.0,53,0.00,CLR,SKC,0.08,WeatherDisplay:10.37,2013-07-06 18:02:00,
2013-07-06 13:07:00,87.4,67.0,29.86,South,185,12.0,22.0,51,0.00,CLR,SKC,0.08,WeatherDisplay:10.37,2013-07-06 18:07:00,
2013-07-06 13:12:00,87.5,68.3,29.86,SSW,205,10.0,22.0,53,0.00,CLR,SKC,0.08,WeatherDisplay:10.37,2013-07-06 18:12:00,
2013-07-06 13:22:00,88.4,68.5,29.85,SSW,204,7.0,12.0,52,0.00,CLR,SKC,0.08,WeatherDisplay:10.37,2013-07-06 18:22:00,
2013-07-06 13:42:00,87.5,67.2,29.85,South,189,6.0,16.0,51,0.00,CLR,SKC,0.08,WeatherDisplay:10.37,2013-07-06 18:42:00,
2013-07-06 13:47:00,87.6,67.2,29.85,SSW,206,10.0,20.0,51,0.00,CLR,SKC,0.08,WeatherDisplay:10.37,2013-07-06 18:47:00,
2013-07-06 13:52:00,87.7,67.3,29.85,SSW,211,12.0,21.0,51,0.00,CLR,SKC,0.08,WeatherDisplay:10.37,2013-07-06 18:52:00,
2013-07-06 14:02:00,88.0,66.5,29.85,SSW,210,8.0,19.0,49,0.00,CLR,SKC,0.08,WeatherDisplay:10.37,2013-07-06 19:02:00,
2013-07-06 14:17:00,88.9,67.2,29.85,SSW,213,15.0,22.0,49,0.00,CLR,SKC,0.08,WeatherDisplay:10.37,2013-07-06 19:17:00,
2013-07-06 14:22:00,88.5,66.9,29.85,SW,226,8.0,21.0,49,0.00,CLR,SKC,0.08,WeatherDisplay:10.37,2013-07-06 19:22:00,
2013-07-06 14:27:00,88.1,66.6,29.85,SSW,207,9.0,21.0,49,0.00,CLR,SKC,0.08,WeatherDisplay:10.37,2013-07-06 19:27:00,
2013-07-06 14:37:00,88.6,67.6,29.85,SSE,156,9.0,18.0,50,0.00,CLR,SKC,0.08,WeatherDisplay:10.37,2013-07-06 19:37:00,
2013-07-06 14:42:00,88.4,67.4,29.85,South,174,5.0,18.0,50,0.00,CLR,SKC,0.08,WeatherDisplay:10.37,2013-07-06 19:42:00,
2013-07-06 15:02:00,86.7,67.0,29.85,South,188,8.0,24.0,52,0.00,CLR,SKC,0.08,WeatherDisplay:10.37,2013-07-06 20:02:00,
2013-07-06 15:32:00,89.2,68.1,29.86,WSW,243,6.0,20.0,50,0.00,CLR,SKC,0.08,WeatherDisplay:10.37,2013-07-06 20:32:00,
2013-07-06 15:42:00,88.5,66.9,29.86,South,183,9.0,20.0,49,0.00,CLR,SKC,0.08,WeatherDisplay:10.37,2013-07-06 20:42:00,
2013-07-06 15:52:00,88.0,67.0,29.85,SSW,195,10.0,20.0,50,0.00,CLR,SKC,0.08,WeatherDisplay:10.37,2013-07-06 20:52:00,
2013-07-06 15:57:00,88.5,67.5,29.85,South,190,8.0,18.0,50,0.00,CLR,SKC,0.08,WeatherDisplay:10.37,2013-07-06 20:57:00,
2013-07-06 16:17:00,87.3,66.9,29.86,SSW,212,13.0,24.0,51,0.00,CLR,SKC,0.08,WeatherDisplay:10.37,2013-07-06 21:17:00,
2013-07-06 16:27:00,87.2,68.0,29.86,SSW,211,6.0,16.0,53,0.00,CLR,SKC,0.08,WeatherDisplay:10.37,2013-07-06 21:27:00,
2013-07-06 16:32:00,87.2,68.0,29.86,SSW,192,6.0,16.0,53,0.00,CLR,SKC,0.08,WeatherDisplay:10.37,2013-07-06 21:32:00,
2013-07-06 16:37:00,86.9,67.7,29.86,SSW,200,6.0,18.0,53,0.00,CLR,SKC,0.08,WeatherDisplay:10.37,2013-07-06 21:37:00,
2013-07-06 16:42:00,86.7,67.0,29.86,SSW,213,8.0,16.0,52,0.00,CLR,SKC,0.08,WeatherDisplay:10.37,2013-07-06 21:42:00,
2013-07-06 16:52:00,86.7,67.5,29.85,SSW,204,3.0,10.0,53,0.00,CLR,SKC,0.08,WeatherDisplay:10.37,2013-07-06 21:52:00,
2013-07-06 17:02:00,86.4,67.8,29.86,South,171,9.0,16.0,54,0.00,CLR,SKC,0.08,WeatherDisplay:10.37,2013-07-06 22:02:00,
2013-07-06 17:07:00,86.5,67.9,29.85,South,179,7.0,15.0,54,0.00,CLR,SKC,0.08,WeatherDisplay:10.37,2013-07-06 22:07:00,
2013-07-06 17:12:00,86.6,67.4,29.85,SSE,167,5.0,13.0,53,0.00,CLR,SKC,0.08,WeatherDisplay:10.37,2013-07-06 22:12:00,
2013-07-06 17:17:00,86.2,67.6,29.85,SSW,209,7.0,12.0,54,0.00,CLR,SKC,0.08,WeatherDisplay:10.37,2013-07-06 22:17:00,
2013-07-06 17:32:00,85.5,68.0,29.85,South,174,5.0,18.0,56,0.00,CLR,SKC,0.08,WeatherDisplay:10.37,2013-07-06 22:32:00,
2013-07-06 17:37:00,85.1,67.1,29.85,South,187,5.0,18.0,55,0.00,CLR,SKC,0.08,WeatherDisplay:10.37,2013-07-06 22:37:00,
2013-07-06 17:47:00,84.4,67.5,29.85,SSE,168,6.0,15.0,57,0.00,CLR,SKC,0.08,WeatherDisplay:10.37,2013-07-06 22:47:00,
2013-07-06 17:52:00,84.0,67.2,29.85,South,191,3.0,19.0,57,0.00,CLR,SKC,0.08,WeatherDisplay:10.37,2013-07-06 22:52:00,
2013-07-06 17:57:00,83.7,67.3,29.85,SSW,196,7.0,18.0,58,0.00,CLR,SKC,0.08,WeatherDisplay:10.37,2013-07-06 22:57:00,
2013-07-06 18:02:00,83.3,67.0,29.85,South,183,7.0,13.0,58,0.00,CLR,SKC,0.08,WeatherDisplay:10.37,2013-07-06 23:02:00,
2013-07-06 18:07:00,83.1,66.3,29.85,South,188,9.0,15.0,57,0.00,CLR,SKC,0.08,WeatherDisplay:10.37,2013-07-06 23:07:00,
2013-07-06 18:12:00,82.8,65.5,29.85,SSW,197,8.0,16.0,56,0.00,CLR,SKC,0.08,WeatherDisplay:10.37,2013-07-06 23:12:00,
2013-07-06 18:17:00,82.6,65.3,29.85,SSW,206,2.0,12.0,56,0.00,CLR,SKC,0.08,WeatherDisplay:10.37,2013-07-06 23:17:00,
2013-07-06 18:22:00,82.6,65.3,29.85,South,187,1.0,10.0,56,0.00,CLR,SKC,0.08,WeatherDisplay:10.37,2013-07-06 23:22:00,
2013-07-06 18:32:00,81.7,66.4,29.86,SSW,204,5.0,10.0,60,0.00,CLR,SKC,0.08,WeatherDisplay:10.37,2013-07-06 23:32:00,
2013-07-06 18:47:00,80.4,66.6,29.86,South,170,2.0,5.0,63,0.00,CLR,SKC,0.08,WeatherDisplay:10.37,2013-07-06 23:47:00,
2013-07-06 18:52:00,80.0,66.2,29.86,SSW,199,2.0,7.0,63,0.00,CLR,SKC,0.08,WeatherDisplay:10.37,2013-07-06 23:52:00,
2013-07-06 18:57:00,79.8,66.1,29.86,SSW,199,0.0,7.0,63,0.00,CLR,SKC,0.08,WeatherDisplay:10.37,2013-07-06 23:57:00,
2013-07-06 19:07:00,79.6,66.3,29.85,South,182,1.0,8.0,64,0.00,CLR,SKC,0.08,WeatherDisplay:10.37,2013-07-07 00:07:00,
2013-07-06 19:12:00,79.4,66.2,29.85,South,187,1.0,3.0,64,0.00,CLR,SKC,0.08,WeatherDisplay:10.37,2013-07-07 00:12:00,
2013-07-06 19:27:00,79.3,65.6,29.86,SW,219,2.0,8.0,63,0.00,CLR,SKC,0.08,WeatherDisplay:10.37,2013-07-07 00:27:00,
2013-07-06 19:37:00,79.2,66.0,29.86,South,188,0.0,8.0,64,0.00,CLR,SKC,0.08,WeatherDisplay:10.37,2013-07-07 00:37:00,
2013-07-06 19:42:00,79.1,65.9,29.86,South,178,2.0,6.0,64,0.00,CLR,SKC,0.08,WeatherDisplay:10.37,2013-07-07 00:42:00,
2013-07-06 19:47:00,79.0,66.2,29.86,South,185,1.0,7.0,65,0.00,CLR,SKC,0.08,WeatherDisplay:10.37,2013-07-07 00:47:00,
2013-07-06 19:52:00,78.8,66.0,29.86,South,191,3.0,8.0,65,0.00,CLR,SKC,0.08,WeatherDisplay:10.37,2013-07-07 00:52:00,
2013-07-06 20:02:00,78.5,65.8,29.86,SSW,196,1.0,11.0,65,0.00,CLR,SKC,0.08,WeatherDisplay:10.37,2013-07-07 01:02:00,
2013-07-06 20:12:00,78.5,65.8,29.86,South,179,3.0,10.0,65,0.00,CLR,SKC,0.08,WeatherDisplay:10.37,2013-07-07 01:12:00,
2013-07-06 20:17:00,78.4,65.7,29.86,South,178,2.0,10.0,65,0.00,CLR,SKC,0.08,WeatherDisplay:10.37,2013-07-07 01:17:00,
2013-07-06 20:22:00,78.4,66.1,29.86,SSW,194,1.0,12.0,66,0.00,CLR,SKC,0.08,WeatherDisplay:10.37,2013-07-07 01:22:00,
2013-07-06 20:42:00,78.1,65.4,29.86,SSE,160,5.0,13.0,65,0.00,CLR,SKC,0.08,WeatherDisplay:10.37,2013-07-07 01:42:00,
2013-07-06 20:47:00,78.2,65.5,29.86,South,182,2.0,8.0,65,0.00,CLR,SKC,0.08,WeatherDisplay:10.37,2013-07-07 01:47:00,
2013-07-06 20:52:00,78.3,65.6,29.87,SSW,205,3.0,7.0,65,0.00,CLR,SKC,0.08,WeatherDisplay:10.37,2013-07-07 01:52:00,
2013-07-06 21:02:00,78.3,66.0,29.87,SSW,209,2.0,10.0,66,0.00,CLR,SKC,0.08,WeatherDisplay:10.37,2013-07-07 02:02:00,
2013-07-06 21:07:00,78.2,65.9,29.87,SW,224,1.0,3.0,66,0.00,CLR,SKC,0.08,WeatherDisplay:10.37,2013-07-07 02:07:00,
2013-07-06 21:12:00,77.8,66.4,29.87,SW,214,3.0,10.0,68,0.00,CLR,SKC,0.08,WeatherDisplay:10.37,2013-07-07 02:12:00,
2013-07-06 21:27:00,77.0,66.4,29.87,South,190,5.0,10.0,70,0.00,CLR,SKC,0.08,WeatherDisplay:10.37,2013-07-07 02:27:00,
2013-07-06 21:32:00,77.0,66.1,29.87,SSW,195,2.0,8.0,69,0.00,CLR,SKC,0.08,WeatherDisplay:10.37,2013-07-07 02:32:00,
2013-07-06 21:52:00,77.3,65.9,29.87,SSW,202,6.0,16.0,68,0.00,CLR,SKC,0.08,WeatherDisplay:10.37,2013-07-07 02:52:00,
2013-07-06 21:57:00,77.4,66.0,29.87,SSW,206,5.0,16.0,68,0.00,CLR,SKC,0.08,WeatherDisplay:10.37,2013-07-07 02:57:00,
2013-07-06 22:02:00,77.3,66.0,29.87,SSW,201,3.0,8.0,68,0.00,CLR,SKC,0.08,WeatherDisplay:10.37,2013-07-07 03:02:00,
2013-07-06 22:07:00,77.3,65.9,29.87,SSW,200,7.0,11.0,68,0.00,CLR,SKC,0.08,WeatherDisplay:10.37,2013-07-07 03:07:00,
2013-07-06 22:22:00,77.3,65.9,29.87,South,174,3.0,10.0,68,0.00,CLR,SKC,0.08,WeatherDisplay:10.37,2013-07-07 03:22:00,
2013-07-06 22:52:00,76.9,66.4,29.87,SSE,166,3.0,12.0,70,0.00,CLR,SKC,0.08,WeatherDisplay:10.37,2013-07-07 03:52:00,
2013-07-06 23:02:00,76.9,66.4,29.87,South,190,6.0,10.0,70,0.00,CLR,SKC,0.08,WeatherDisplay:10.37,2013-07-07 04:02:00,
2013-07-06 23:07:00,76.9,66.4,29.88,SW,216,2.0,10.0,70,0.00,CLR,SKC,0.08,WeatherDisplay:10.37,2013-07-07 04:07:00,
2013-07-06 23:12:00,76.9,66.4,29.88,SSW,211,1.0,8.0,70,0.00,CLR,SKC,0.08,WeatherDisplay:10.37,2013-07-07 04:12:00,
2013-07-06 23:22:00,76.9,66.4,29.88,South,180,2.0,8.0,70,0.00,CLR,SKC,0.08,WeatherDisplay:10.37,2013-07-07 04:22:00,
2013-07-06 23:27:00,76.9,66.4,29.88,South,186,2.0,8.0,70,0.00,CLR,SKC,0.08,WeatherDisplay:10.37,2013-07-07 04:27:00,
2013-07-06 23:32:00,76.9,66.4,29.88,SSW,206,3.0,10.0,70,0.00,CLR,SKC,0.08,WeatherDisplay:10.37,2013-07-07 04:32:00,
2013-07-06 23:37:00,77.0,66.5,29.88,SSW,209,5.0,12.0,70,0.00,CLR,SKC,0.08,WeatherDisplay:10.37,2013-07-07 04:37:00,
2013-07-06 23:42:00,77.1,66.6,29.89,SSW,208,2.0,12.0,70,0.00,CLR,SKC,0.08,WeatherDisplay:10.37,2013-07-07 04:42:00,
2013-07-06 23:52:00,77.3,66.7,29.89,SSE,163,2.0,9.0,70,0.00,CLR,SKC,0.08,WeatherDisplay:10.37,2013-07-07 04:52:00,
2013-07-06 23:57:00,77.3,66.8,29.88,South,184,3.0,8.0,70,0.00,CLR,SKC,0.08,WeatherDisplay:10.37,2013-07-07 04:57:00,